Temp
22 20 20 19 18 18 17 16 15 14 14 14 14 15 15 14 13 13 12 12 11 11 11 12 12 12 12 11 12 12 13 13 12 14 14 14 13 13 13 13 12 12 11
22 19 18 17 17 17 17 16 15 14 14 14 15 15 15 14 13 12 11 11 11 10 11 11 11 11 11 11 11 11 11 12 11 12 13 15 15 14 14 12 12 12 11
21 19 18 17 16 16 16 16 15 14 14 13 12 12 12 12 12 12 12 11 10 11 10 10 10 10 10 10 10 10 10 11 12 11 12 14 14 13 13 13 12 12 12
22 20 18 17 16 16 15 15 14 13 13 12 13 13 14 15 14 13 12 10 10 10 10 10 10 10 10 10 10 10 10 10 11 12 11 11 11 12 13 14 13 13 12
21 19 17 17 16 14 14 14 13 13 12 12 13 13 13 14 13 12 11 11 10 9 10 10 9 9 9 9 9 9 9 10 10 10 10 11 12 11 12 11 13 13 12
20 18 17 16 15 14 13 13 13 13 12 12 12 12 13 13 12 12 12 12 11 10 9 9 9 9 9 9 8 8 9 9 9 9 10 10 11 11 11 11 11 11 11
18 17 16 15 14 13 13 13 13 13 12 12 12 12 12 12 12 12 12 12 11 11 10 9 9 9 8 8 8 8 8 9 8 8 9 9 9 9 9 10 10 10 10
17 16 16 15 15 14 13 13 13 13 12 12 12 11 11 11 11 11 11 11 11 10 9 9 9 8 8 8 8 8 8 8 8 8 8 8 8 9 9 8 8 8 10
16 16 15 15 15 14 13 13 13 12 12 12 11 11 11 10 11 10 10 10 10 9 9 9 8 8 8 8 8 8 8 8 8 8 7 7 8 8 8 8 7 8 7
15 15 14 14 14 13 13 12 12 12 12 11 11 11 11 10 10 10 10 10 9 9 9 9 8 8 8 8 8 7 7 8 7 7 7 7 7 7 7 7 7 7 7
15 14 14 13 13 12 12 12 12 11 11 11 11 10 10 10 9 9 9 9 9 9 8 8 8 8 8 8 8 8 8 7 7 7 7 7 7 7 7 7 7 6 6
14 14 13 13 12 12 12 12 11 11 11 10 10 10 9 9 9 9 8 8 8 8 8 7 7 8 8 8 8 8 8 7 7 7 7 7 7 7 6 6 6 6 6
13 13 13 12 12 11 11 10 10 10 10 10 9 9 9 9 8 8 8 7 7 7 7 7 7 7 7 7 7 7 6 6 6 6 6 6 6 6 6 6 6 6 5
13 13 12 11 11 10 10 10 9 9 8 8 8 8 8 7 7 7 7 7 7 7 7 7 6 6 6 6 5 5 5 5 5 5 5 5 5 5 5 5 5 4 5
12 12 12 11 10 10 9 9 8 8 8 8 7 7 7 6 6 6 6 6 6 6 6 6 6 5 5 5 5 4 4 4 4 4 5 5 5 4 4 4 4 4 4
12 11 11 11 10 10 9 8 8 7 7 7 7 6 6 6 6 6 5 5 5 5 5 5 5 4 4 4 4 3 3 3 3 3 4 4 4 4 4 4 3 2 2
11 11 11 10 9 9 9 8 7 7 7 7 6 6 6 6 5 5 5 5 5 4 4 4 4 4 4 4 3 3 2 2 2 3 3 3 4 4 4 4 4 3 3
11 11 10 9 8 8 7 7 7 7 6 6 6 6 5 5 5 4 4 4 4 4 4 4 4 3 3 3 3 2 2 1 2 2 2 3 3 3 3 3 3 3 3
11 10 9 9 8 7 6 6 6 6 6 6 5 4 4 4 4 3 3 3 3 3 3 3 3 3 2 2 2 2 1 1 2 2 2 2 3 2 2 2 2 2 2
9 9 8 8 7 6 5 5 6 5 5 4 3 3 3 3 3 3 2 2 2 2 2 3 2 2 2 2 2 2 1 1 1 2 2 2 2 2 2 1 1 1 1
8 7 7 7 6 5 4 5 4 4 4 3 2 2 2 2 2 2 1 1 1 1 1 1 2 2 2 2 2 2 1 1 0 1 1 1 1 1 1 1 1 0 1
6 6 6 5 4 4 3 4 4 3 2 2 2 2 2 1 1 1 0 0 0 1 1 1 1 1 1 1 1 1 0 -0 -0 -1 -0 -0 0 0 0 0 -0 -0 0
4 4 5 4 4 3 3 2 3 2 1 1 1 1 1 0 0 0 -0 -0 -0 -0 -0 -0 -0 -1 -1 -1 -1 -1 -1 -1 -1 -1 -1 -1 -1 -1 -1 -1 -0 -0 -0
5 4 4 4 4 3 2 2 1 1 0 0 0 0 -0 -0 -0 -0 -1 -1 -0 -1 -1 -1 -2 -2 -2 -2 -2 -2 -3 -2 -2 -2 -2 -2 -1 -1 -1 -1 -1 -1 -1
4 3 3 3 2 2 2 1 0 -0 -1 -1 -1 -1 -1 -1 -1 -1 -1 -1 -1 -2 -2 -2 -2 -3 -3 -3 -3 -2 -2 -2 -2 -2 -2 -2 -1 -1 -1 -1 -1 -1 -1
2 2 2 2 2 1 1 0 -0 -1 -2 -2 -2 -2 -2 -2 -2 -2 -2 -2 -2 -2 -2 -2 -2 -2 -2 -2 -2 -2 -2 -2 -1 -1 -2 -2 -2 -2 -1 -1 -1 -2 -2
Height
792 799 804 808 812 815 818 822 825 828 830 832 833 834 835 836 837 837 837 837 837 837 837 836 835 834 833 832 831 829 827 825 823 820 818 818 818 818 818 818 817 815 813
790 800 804 807 811 814 817 821 824 827 829 831 832 834 835 836 837 836 837 837 837 837 837 837 836 835 835 833 832 830 829 827 825 824 821 816 816 816 816 817 816 816 814
788 797 802 806 810 813 817 820 824 826 828 829 831 832 833 835 836 836 837 837 837 836 836 836 836 835 834 833 833 832 830 829 827 826 825 820 818 817 814 815 816 815 813
784 793 799 804 808 813 817 820 823 825 827 828 830 831 832 833 835 836 837 837 837 836 836 835 835 835 835 834 834 833 832 830 828 827 827 827 827 823 818 815 815 814 812
784 791 798 803 808 813 817 820 823 824 826 828 830 831 832 833 834 835 836 837 837 837 836 836 835 835 835 834 833 832 832 831 829 828 828 826 825 824 822 817 814 813 811
786 792 799 804 809 813 816 819 822 824 826 828 829 830 831 832 833 834 835 836 836 836 836 836 835 835 835 834 834 833 833 832 831 831 830 828 827 825 823 820 818 815 811
790 795 801 805 809 813 816 819 822 824 825 827 828 829 830 831 832 834 834 835 835 836 835 834 835 835 834 833 832 831 831 830 829 828 826 825 825 824 822 820 817 814 811
792 797 801 805 809 813 816 818 820 822 824 825 827 828 830 831 832 833 833 834 834 834 833 832 832 832 831 831 831 830 830 829 828 827 826 824 822 821 820 818 817 812 809
794 798 803 805 809 812 814 816 818 821 823 825 827 828 828 829 830 830 831 831 831 831 831 831 831 830 830 829 828 827 827 826 825 824 822 821 820 818 817 817 816 813 808
798 802 804 807 809 811 814 816 819 820 822 824 825 826 827 828 829 830 830 831 831 830 830 829 829 829 828 827 826 825 824 823 822 820 819 818 817 815 813 811 810 809 807
799 802 805 808 810 812 814 816 818 820 822 823 825 826 827 828 828 829 829 830 830 830 829 828 827 827 826 825 824 823 821 820 818 817 815 812 811 810 809 808 806 804 803
801 804 806 809 811 813 815 817 819 820 822 824 825 827 827 828 829 829 829 829 829 828 827 826 825 824 823 822 821 819 818 816 814 812 810 808 806 804 803 801 801 799 797
803 806 808 811 813 816 817 819 820 822 823 825 826 827 828 829 829 830 830 829 828 827 826 825 824 823 822 820 818 817 814 811 809 807 805 803 802 799 798 796 795 793 791
805 808 811 814 816 818 819 821 823 825 826 827 829 830 830 831 831 830 830 829 827 826 824 823 821 820 818 816 814 812 809 806 804 802 800 798 796 794 792 790 788 786 785
806 809 812 815 818 820 822 824 826 827 828 829 831 831 832 832 831 830 829 828 826 825 823 821 818 816 813 811 809 807 804 802 798 795 792 791 789 787 785 784 782 780 779
806 810 814 817 819 822 824 826 828 829 831 831 832 833 833 832 831 830 828 827 824 822 819 816 814 811 809 806 804 801 798 794 792 788 785 782 781 779 778 776 775 774 773
807 812 815 818 821 824 826 828 830 831 832 832 833 832 831 830 829 827 825 823 820 818 815 811 808 805 802 799 797 794 791 787 784 781 778 775 773 771 770 769 767 765 764
807 811 815 819 822 825 827 829 830 831 832 832 832 831 830 828 826 823 821 818 815 811 809 805 802 797 794 792 790 787 784 780 776 773 770 768 766 764 763 761 760 758 756
807 811 815 819 822 825 827 828 829 830 831 830 830 828 826 824 821 818 816 813 809 805 801 798 794 791 787 785 782 780 777 773 769 765 763 761 758 756 756 755 753 750 746
808 813 817 820 823 826 827 829 829 829 829 828 826 824 822 820 817 815 812 808 805 800 795 790 787 784 780 777 774 772 769 765 761 758 756 753 751 749 748 748 746 743 740
811 814 817 820 823 826 826 827 827 827 826 825 824 821 819 816 813 809 806 804 800 795 790 786 782 778 775 771 768 765 762 759 755 752 749 747 745 743 741 740 738 736 734
815 817 820 822 824 825 826 826 825 824 824 822 820 817 814 812 808 805 801 799 795 790 786 782 777 774 770 766 762 758 756 754 750 746 743 741 739 737 735 733 731 729 727
817 819 821 823 824 825 825 825 823 821 819 818 816 813 810 807 803 800 796 794 791 787 783 779 774 769 766 762 758 755 751 747 744 741 738 735 732 730 727 726 723 721 719
816 819 820 821 822 823 823 823 820 818 816 814 812 809 805 801 798 795 793 791 788 784 780 776 771 766 761 757 753 748 745 742 739 736 732 729 726 724 721 718 716 714 713
816 818 820 820 820 819 819 819 816 814 812 810 808 804 800 797 794 792 790 786 784 782 778 772 768 762 756 752 749 745 741 737 734 730 727 723 720 717 715 712 711 709 707
817 817 817 818 819 818 816 814 812 811 808 805 803 801 798 794 790 787 784 783 779 776 772 767 763 757 753 749 745 741 737 734 730 725 722 718 715 713 710 708 706 704 703
Wind_Speed
15 15 13 13 13 13 14 14 12 11 8 7 6 5 5 3 2 1 2 2 3 4 5 5 6 7 7 9 10 10 9 10 14 7 4 3 2 2 4 5 6 7 9
13 12 13 14 14 15 14 14 12 10 8 6 5 3 4 3 3 2 1 2 2 4 4 5 6 7 7 9 10 11 10 9 12 9 8 3 4 3 6 5 5 7 10
14 12 14 14 14 14 14 13 11 9 7 6 5 4 4 3 3 2 2 0 2 3 3 4 5 6 6 6 7 8 9 7 8 9 6 3 3 11 2 2 4 7 10
12 12 14 14 14 14 12 11 10 8 7 6 5 6 4 3 2 2 3 1 0 1 2 3 3 4 5 5 6 6 7 8 8 5 6 4 4 3 4 6 3 7 9
11 12 13 14 13 13 12 10 9 8 6 5 5 4 3 2 2 2 2 2 2 1 2 2 3 3 4 5 5 5 5 5 5 5 7 6 6 4 5 5 10 13 14
9 11 12 13 13 11 10 9 8 6 5 5 4 3 2 3 2 3 3 3 3 3 3 3 3 4 4 4 5 6 6 6 6 7 7 7 5 10 8 7 12 14 16
9 10 11 13 13 11 9 7 7 6 6 5 4 3 3 3 3 3 4 4 4 3 3 3 3 3 5 5 5 5 5 5 6 6 6 7 8 9 10 11 12 9 16
9 10 12 11 10 9 8 7 7 6 6 5 5 3 2 2 3 3 3 3 4 4 5 5 5 5 6 6 6 7 7 7 8 9 9 10 10 10 11 10 11 7 9
10 9 9 8 8 8 8 7 7 6 6 6 5 4 4 3 3 4 4 5 5 5 5 5 6 6 6 7 7 8 9 9 10 11 12 12 13 13 13 13 13 11 5
9 8 8 7 6 6 6 6 6 6 6 6 5 5 4 4 4 4 4 5 5 6 6 7 7 7 8 8 9 10 10 11 13 13 13 14 15 15 16 16 16 16 16
8 7 7 6 5 5 4 4 4 4 4 4 4 3 2 2 2 3 4 5 5 6 7 8 8 9 10 10 11 12 14 15 15 16 17 18 18 18 17 17 17 18 18
8 8 9 9 9 7 6 5 5 5 4 4 3 3 2 1 1 2 3 4 5 6 7 8 10 11 11 12 13 15 17 18 20 21 21 20 19 20 18 18 19 19 20
9 9 10 11 11 11 11 10 9 8 7 6 6 5 5 4 4 4 4 5 6 7 8 9 11 13 15 17 18 20 21 21 21 22 22 22 21 21 20 20 20 20 20
9 9 9 11 12 12 13 13 12 11 10 10 9 8 7 6 5 5 6 7 8 10 11 12 14 15 16 18 19 20 20 21 22 23 24 24 23 22 22 22 22 21 22
9 9 9 10 11 11 11 11 11 10 9 9 8 7 6 6 7 8 9 10 11 12 14 15 17 18 18 19 20 21 22 24 25 25 26 25 25 26 26 24 22 22 22
10 9 9 10 10 9 9 8 8 7 7 6 6 5 6 8 9 11 13 14 16 17 17 18 20 21 21 21 24 24 24 24 25 27 27 27 28 28 28 29 28 26 25
11 10 9 10 9 8 7 6 5 4 4 4 5 7 9 11 13 15 17 18 20 21 21 22 23 24 25 24 25 26 25 25 26 27 28 28 27 27 27 29 29 29 31
11 10 11 10 8 7 5 4 2 2 3 5 8 10 12 15 16 18 19 21 22 24 26 27 26 27 29 28 28 27 25 25 26 28 28 27 27 28 28 27 27 29 29
12 12 11 9 8 6 4 1 2 4 5 7 10 12 15 17 19 20 22 23 25 26 27 29 30 29 30 30 29 27 25 26 28 28 28 27 27 28 27 26 26 28 30
12 12 10 8 6 4 2 2 4 6 8 10 13 16 17 19 21 22 24 25 26 28 28 30 30 31 33 32 30 27 24 25 28 28 27 28 28 27 27 27 26 27 28
12 11 9 6 6 3 1 4 7 9 11 14 16 18 19 20 21 22 22 25 26 27 28 30 32 33 32 31 31 29 26 24 25 24 24 24 25 27 26 24 25 27 29
10 8 8 7 4 2 4 6 9 10 12 15 17 19 20 20 21 21 22 24 25 25 26 27 29 29 30 29 30 27 25 25 25 26 26 26 27 27 26 26 28 29 30
9 6 5 3 1 2 4 9 11 12 14 16 18 20 20 20 19 20 20 21 22 23 23 24 25 26 27 26 26 28 28 26 25 24 25 28 30 29 28 26 26 26 25
8 5 1 1 3 5 8 10 12 13 15 17 19 19 20 20 19 19 19 19 20 21 22 22 24 26 28 27 27 25 24 23 24 25 26 24 26 27 26 26 24 23 22
6 3 0 3 7 9 11 12 13 14 16 17 18 18 17 19 22 21 20 20 21 21 25 25 25 25 26 26 28 29 26 24 23 25 23 22 21 20 19 18 19 19 21
3 1 3 6 8 10 12 13 13 14 16 18 18 18 20 19 20 21 24 21 23 25 24 25 24 26 26 26 25 25 24 24 25 26 22 20 19 18 17 16 17 16 17
Wind_Direction
183 185 187 185 184 182 177 174 169 170 166 170 171 181 187 175 146 114 74 56 32 24 21 22 18 20 20 16 11 5 4 9 0 335 329 257 251 263 293 298 309 323 329
176 176 181 182 183 179 177 176 174 173 172 174 180 175 184 192 192 175 97 65 39 28 28 27 22 21 19 19 16 16 4 14 14 2 291 334 201 225 296 305 299 322 333
183 183 181 183 181 179 179 177 172 168 171 171 168 163 176 179 195 200 194 89 46 22 41 31 31 21 26 19 13 13 15 356 15 20 5 335 358 337 175 279 292 319 331
184 175 178 177 178 175 169 168 166 164 169 175 183 197 219 229 199 191 191 196 189 350 6 32 28 19 18 12 7 1 4 3 6 8 15 5 345 336 331 338 309 326 320
183 168 176 169 165 155 161 162 163 165 168 179 193 206 227 219 186 189 189 204 225 249 317 356 0 358 0 353 355 353 351 351 343 348 340 329 303 253 272 299 321 322 330
172 161 162 156 152 154 156 160 164 164 168 173 179 188 202 209 209 210 218 221 224 235 275 325 338 337 328 324 330 332 334 336 333 330 326 327 328 322 321 314 319 316 314
165 151 154 159 157 160 157 160 171 173 177 178 181 188 198 207 228 234 235 233 243 251 258 283 298 299 306 310 307 303 300 299 296 294 295 293 289 295 296 299 298 305 307
143 155 151 153 156 157 163 170 177 181 187 192 196 199 207 214 230 236 243 246 251 250 246 256 270 278 287 291 293 296 297 295 292 289 286 285 282 280 278 280 295 299 288
132 133 136 143 150 162 172 178 180 187 195 199 200 205 209 216 226 234 234 238 245 252 262 272 278 280 281 280 280 281 278 278 280 279 278 277 280 278 276 276 274 271 286
119 121 124 135 145 155 165 175 186 195 198 199 203 205 209 218 231 243 255 263 269 271 274 277 281 286 283 280 279 280 282 279 279 278 276 279 278 277 272 268 264 264 266
133 127 122 121 132 146 161 172 180 183 179 184 184 188 194 218 235 253 270 283 290 293 288 285 283 282 283 280 278 278 279 276 275 275 276 274 277 276 274 273 266 262 263
129 118 111 103 97 100 108 113 122 121 122 130 134 123 108 75 14 330 324 313 302 296 293 289 286 285 283 284 282 283 282 280 279 281 280 278 278 275 272 269 269 265 264
134 122 111 101 95 91 91 92 92 93 94 100 99 89 73 61 42 19 357 339 327 314 305 300 299 299 299 298 293 292 292 288 283 281 278 277 277 276 273 269 269 267 264
139 123 115 105 99 96 94 92 88 86 85 83 81 74 61 46 27 3 345 332 324 315 308 302 297 295 295 293 291 290 289 288 286 284 280 277 272 271 271 268 263 264 264
150 140 130 119 112 106 100 93 87 84 82 77 67 53 34 12 353 338 326 315 308 301 299 296 294 292 290 289 289 289 289 289 287 284 281 276 273 268 264 265 266 265 265
153 141 135 129 121 113 106 102 93 80 72 63 47 18 350 333 322 314 309 305 300 295 293 290 291 290 287 285 285 283 282 283 283 282 279 276 273 271 269 269 271 265 262
159 154 149 139 130 123 122 111 99 79 48 14 346 329 319 312 306 302 298 294 293 292 287 285 286 287 286 286 283 280 279 280 280 280 279 279 276 274 273 272 269 266 264
161 156 149 144 140 133 120 113 80 17 344 330 321 315 312 308 307 306 301 298 295 292 289 286 284 284 284 286 286 283 280 276 275 274 276 277 278 277 276 277 278 274 272
160 158 156 150 145 142 126 67 344 337 322 317 316 315 314 312 310 306 304 301 299 296 292 288 287 286 286 287 287 283 279 277 273 274 275 275 275 273 276 280 279 274 270
148 147 145 139 138 114 73 337 323 325 323 323 316 315 312 308 304 303 302 301 298 295 295 292 289 289 289 289 287 283 279 276 279 281 280 278 276 276 278 275 273 275 275
146 137 135 133 122 125 17 329 328 326 322 315 309 305 304 303 301 302 304 303 302 301 300 298 297 295 294 295 292 289 284 279 282 284 286 284 282 281 280 278 277 275 280
127 131 135 130 124 49 345 323 315 312 306 305 303 303 305 305 304 303 304 305 307 306 304 303 304 305 304 299 299 294 290 286 281 282 285 287 287 287 286 282 280 280 280
126 124 129 121 97 332 322 308 307 309 307 306 305 306 306 306 308 310 310 309 307 304 304 305 305 305 305 304 303 301 297 290 285 285 288 291 291 290 290 287 285 285 283
140 141 143 296 306 312 309 304 310 309 308 307 308 309 310 312 312 313 308 305 306 309 309 309 307 305 304 300 296 288 287 290 292 297 297 293 292 291 288 286 282 279 279
140 137 326 321 315 314 309 310 311 312 309 308 309 311 312 313 312 308 305 304 302 305 307 306 307 304 302 303 308 308 309 307 302 302 299 294 292 293 292 289 285 281 280
121 23 329 310 304 303 304 310 311 311 312 312 313 313 313 312 309 308 309 304 301 303 305 303 303 302 301 307 310 313 314 314 312 307 301 296 295 292 292 297 298 300 298